TIME,DELAY(SENSOR),PRES,OXYGEN,RAWTEMP,T(OPTODE),TCPHASE,FLUOR,BETA(BETA700),BETA(BETA412),BETA(BETA440),CDOM,C(CSC),ED(ED411.90),ED(ED443.80),ED(ED489.40),ED(ED554.70),LU(LU412.20),LU(LU443.80),LU(LU489.40),LU(LU555.00),COMP,TILTX,TILTY,CHECK
1345068456,5752,876.0300292968750000,164.5151062011718800,428.3305969238281000,10.1078996658325200,39.6545600891113300,52,106,102,82,74,15574,2147452150,2147788973,2147574116,2147820626,2147305874,2147454034,2147745929,2148268406,1848,6,13,62528
1345072052,5805,716.0000000000000000,192.4208984375000000,501.8875122070312500,7.8210339546203610,38.9751701354980500,51,105,102,82,76,15567,2147438537,2147796525,2147585097,2147831634,2147308498,2147447570,2147760585,2148278180,1293,6,14,5467
1345075652,5806,995.0000000000000000,200.6278076171875000,512.0670166015625000,7.5019049644470215,38.6381492614746100,51,109,100,82,76,15570,2147440064,2147796086,2147584173,2147831296,2147304320,2147447094,2147764598,2148277659,469,6,14,48311
1345079252,5804,957.0000000000000000,202.9246978759765600,514.4719848632812000,7.4264011383056640,38.5401306152343750,51,104,101,82,75,15568,2147437321,2147795922,2147582692,2147832667,2147303945,2147451236,2147760219,2148273636,3571,6,14,40773
1345082852,5804,9.8000001907348630,205.0339050292968800,515.6021118164062000,7.3909101486206055,38.4332618713378900,52,105,101,82,75,15564,2147434541,2147797778,2147585307,2147830080,2147305490,2147447332,2147757165,2148278336,308,6,14,39113
1345086452,5803,10.0000000000000000,204.6752014160156200,516.2017822265625000,7.3720707893371580,38.4656181335449200,51,103,102,81,75,15562,2147430857,2147796214,2147584941,2147828068,2147309394,2147451291,2147761654,2148276178,3497,6,14,55327
1345090052,5805,10.6000003814697270,203.8999023437500000,516.3378295898438000,7.3677968978881840,38.5146903991699200,51,105,102,83,76,15561,2147433005,2147799049,2147582793,2147829915,2147306688,2147447323,2147766537,2148277933,28,6,14,586
1345093652,5805,1109.0000000000000000,204.6069946289062500,516.5692138671875000,7.3605279922485350,38.4758491516113300,51,107,109,83,77,15560,2147434596,2147797129,2147586587,2147829394,2147305472,2147447835,2147762377,2148277632,3458,6,14,11225
1345097252,5805,11.8999996185302730,205.3856048583984400,516.4876098632812000,7.3630909919738770,38.4280090332031250,50,106,101,81,76,15555,2147435446,2147795346,2147582336,2147829696,2147305837,2147441974,2147760374,2148279680,3257,6,14,38336
1345100852,5803,10.6000003814697270,205.3166961669922000,516.7451782226562000,7.3549990653991700,38.4359703063964840,52,105,101,81,75,15557,2147435337,2147794742,2147583250,2147831049,2147305106,2147447332,2147763858,2148278820,3539,6,15,23118
1345104452,5806,10.8000001907348630,203.4237060546875000,516.5974731445312000,7.3596382141113280,38.5475502014160160,52,110,101,81,76,15554,2147437888,2147797193,2147583277,2147826377,2147305408,2147448000,2147762084,2148278756,27,6,14,8432
1345108052,5806,10.5000000000000000,205.5738983154297000,516.8253784179688000,7.3524780273437500,38.4228706359863300,51,104,101,82,76,15556,2147437357,2147795364,2147583296,2147828013,2147304905,2147451794,2147764324,2148276717,434,6,15,17366
1345111652,5803,1035.0000000000000000,205.6849975585937500,517.5703735351562000,7.3290700912475590,38.4285316467285160,51,104,103,83,75,15552,2147438628,2147793517,2147582043,2147831542,2147307410,2147451355,2147761974,2148276681,3204,6,15,36197
1345115252,5802,11.6000003814697270,205.6376953125000000,516.3250122070312000,7.3681988716125490,38.4096488952636700,50,107,102,81,74,15551,2147438125,2147795017,2147582784,2147830006,2147305142,2147449755,2147760603,2148275392,3396,6,15,26693
1345118852,5804,10.3000001907348630,204.3777008056640600,517.8054809570312000,7.3216791152954100,38.5114402770996100,51,103,100,82,74,15553,2147434166,2147798491,2147582153,2147829430,2147305353,2147450276,2147765394,2148280795,134,6,14,20851
1345122452,5804,11.3999996185302730,204.0829925537109400,518.3739013671875000,7.3038182258605960,38.5392990112304700,50,103,101,81,75,15552,2147435611,2147795867,2147583597,2147832457,2147305380,2147445613,2147766189,2148278034,3549,6,14,17569
1345126052,5805,11.3999996185302730,204.8069000244140600,520.1057128906250000,7.2493748664855960,38.5270385742187500,51,104,102,82,76,15549,2147435154,2147795803,2147582793,2147832018,2147306313,2147446171,2147760548,2148276288,3215,6,14,19383
1345129652,5805,10.8999996185302730,206.4002075195312500,520.5177001953125000,7.2364211082458500,38.4385604858398440,50,104,102,82,75,15548,2147437412,2147796909,2147583616,2147828836,2147306450,2147446006,2147761417,2148279478,2965,6,14,5504
1345133252,5804,18.0000000000000000,206.6504974365234400,520.5966186523438000,7.2339410781860350,38.4249382019043000,51,106,102,82,76,15549,2147432137,2147799478,2147586971,2147830793,2147303332,2147448256,2147760073,2148278838,3005,6,14,29367
1345136852,5803,108.0000000000000000,207.2424011230468800,520.4774780273438000,7.2376837730407715,38.3871002197265600,51,104,102,82,76,15547,2147436672,2147796297,2147582884,2147829741,2147303771,2147453851,2147760091,2148276434,3119,6,14,46492
1345140452,5804,11.8999996185302730,207.3656005859375000,520.4785766601562000,7.2376489639282230,38.3806381225585940,51,148,102,82,76,15544,2147437037,2147797796,2147582555,2147831506,2147304374,2147445696,2147760740,2148276909,3097,6,14,1153
1345144052,5800,1.0000000000000000,206.1457061767578000,520.1530151367188000,7.2478880882263180,38.4471397399902340,51,104,100,81,76,15542,2147434121,2147797833,2147582884,2147833106,2147306011,2147446729,2147763392,2148279451,3571,6,14,29712
1345147652,5804,12.6000003814697270,206.1952972412109400,520.3248291015625000,7.2424860000610350,38.4468002319335940,51,105,102,81,76,15543,2147434432,2147796507,2147580626,2147827776,2147304457,2147447277,2147760356,2148277028,3421,6,14,65474
1345151252,5802,12.8000001907348630,206.0390014648437500,519.5004882812500000,7.2684040069580080,38.4416999816894500,50,108,102,82,75,15543,2147437275,2147796105,2147583405,2147829586,2147307629,2147446893,2147763446,2148276406,3456,6,14,22791
1345154852,5806,11.1999998092651370,206.7203063964843800,520.4680175781250000,7.2379832267761230,38.4181213378906250,51,105,101,82,76,15542,2147436827,2147797165,2147583488,2147829686,2147308425,2147450998,2147762788,2148280173,314,6,14,31282
1345158452,5802,1080.0000000000000000,207.0527038574218800,520.6530761718750000,7.2321619987487790,38.4015693664550800,51,108,104,82,76,15541,2147434386,2147801746,2147585005,2147830080,2147306029,2147449161,2147765312,2148279058,337,6,14,26316
1345162052,5804,1144.0000000000000000,207.5223999023437500,521.3372192382812000,7.2106480598449710,38.3863792419433600,51,102,100,82,75,15540,2147436973,2147800493,2147581595,2147829138,2147305627,2147450605,2147764333,2148277705,3312,6,15,55687
1345165652,5802,11.6000003814697270,208.4216003417968800,521.7985839843750000,7.1961350440979000,38.3408088684082000,51,105,101,83,77,15539,2147435309,2147798107,2147582116,2147833179,2147307227,2147445650,2147758784,2148276086,1263,6,15,35909
1345169252,5805,1079.0000000000000000,208.7525024414062500,521.4860229492188000,7.2059669494628910,38.3158416748046900,50,104,103,81,76,15541,2147436306,2147799113,2147581979,2147830098,2147307026,2147450093,2147759753,2148279177,1532,6,14,5921
1345172852,5802,11.8000001907348630,206.7019042968750000,521.2628173828125000,7.2129898071289060,38.4334793090820300,50,105,103,82,77,15538,2147434678,2147795611,2147579730,2147829970,2147305517,2147447744,2147761435,2148276288,3462,6,14,17686
1345176452,5807,1193.0000000000000000,206.6999053955078000,521.4752807617188000,7.2063059806823730,38.4380989074707000,51,105,103,82,75,15537,2147433362,2147797558,2147582061,2147833060,2147303396,2147446729,2147758756,2148277568,259,6,14,43968
1345180052,5803,12.8000001907348630,206.2384033203125000,521.4188232421875000,7.2080821990966800,38.4641418457031250,51,105,102,82,76,15538,2147436178,2147796068,2147584987,2147831341,2147306441,2147447552,2147764178,2148276781,325,6,14,35244
1345183652,5803,12.6999998092651370,205.3383026123047000,520.0120849609375000,7.2523169517517090,38.4932289123535160,51,105,103,82,75,15538,2147434605,2147795318,2147584832,2147832832,2147305737,2147445686,2147764909,2148277878,3456,6,14,7735
1345187252,5803,12.1000003814697270,204.4066009521484400,519.9257202148438000,7.2550339698791500,38.5477409362793000,51,103,101,81,75,15535,2147435922,2147798710,2147582153,2147831826,2147308800,2147448612,2147762980,2148277796,3397,6,14,15029
1345190852,5803,12.6000003814697270,205.4803924560547000,519.4708862304688000,7.2693328857421875,38.4748191833496100,51,106,101,82,76,15529,2147436196,2147799323,2147581696,2147830628,2147306340,2147446902,2147762258,2148278153,279,6,14,11438
1345194452,5804,10.3999996185302730,203.4098968505859400,519.0991821289062000,7.2810177803039550,38.5927810668945300,51,104,102,82,75,15534,2147434852,2147798637,2147584374,2147829677,2147308452,2147447451,2147762093,2148279341,3272,6,15,2830
1345198052,5803,1004.0000000000000000,205.5464935302734400,518.2805786132812000,7.3067498207092285,38.4495201110839840,51,103,101,82,76,15534,2147433334,2147797010,2147581814,2147829193,2147302701,2147453193,2147761133,2148276681,3148,6,14,22884
1345201652,5802,1284.0000000000000000,203.0180053710937500,519.0927124023438000,7.2812252044677730,38.6164283752441400,52,104,101,82,75,15533,2147439131,2147797513,2147583012,2147827446,2147307693,2147448448,2147757924,2148276800,3442,6,15,54201
1345205252,5801,1024.0000000000000000,204.7230987548828000,520.7216796875000000,7.2300038337707520,38.5419502258300800,52,105,101,81,75,15531,2147435282,2147799232,2147582811,2147830317,2147307017,2147451090,2147759232,2148277659,3298,6,14,319
1345208852,5805,12.6000003814697270,206.7698059082031200,521.3568115234375000,7.2100319862365720,38.4316902160644500,50,103,102,83,76,15528,2147433106,2147794377,2147580864,2147831003,2147306989,2147447780,2147757851,2148277824,3440,6,15,22379
1345210255,5804,12.6000003814697270,207.2371063232422000,522.0595092773438000,7.1879291534423830,38.4155006408691400,51,105,103,82,76,15529,2147433206,2147796608,2147583908,2147832576,2147306166,2147449810,2147762157,2148278985,3463,6,15,17497
